EW7948 Weather Reports


Display with metric or nautical units.
time (UTC)temp
F
wind
direction
speed
MPH
gust
MPH
rain 1hr
in
rain 24hr
in
rain mn
in
humidity
%
barometer
mb
20260508031513 69 90 2.0 4.0 0.00 0.00 0.00 24 1006.8
20260508030010 70 90 0.0 6.0 0.00 0.00 0.00 27 1006.9
20260508024510 72 90 0.0 0.0 0.00 0.00 0.00 27 1006.9
20260508023010 74 90 0.0 3.0 0.00 0.00 0.00 21 1006.7
20260508021508 74 90 2.0 4.0 0.00 0.00 0.00 17 1006.7
20260508020011 75 90 1.0 4.0 0.00 0.00 0.00 17 1006.8
20260508014510 76 90 3.0 6.0 0.00 0.00 0.00 17 1006.7
20260508013010 76 96 0.0 4.0 0.00 0.00 0.00 16 1006.7
20260508011508 77 113 1.0 3.0 0.00 0.00 0.00 16 1006.9
20260508010007 78 112 1.0 6.0 0.00 0.00 0.00 15 1006.9
20260508004508 78 114 2.0 6.0 0.00 0.00 0.00 15 1007.0
20260508003002 78 63 1.0 5.0 0.00 0.00 0.00 16 1007.1
20260508001501 79 84 1.0 8.0 0.00 0.00 0.00 15 1007.3
20260508000100 80 146 1.0 7.0 0.00 0.00 0.00 15 1007.5
20260507234558 80 181 4.0 7.0 0.00 0.00 0.00 15 1007.7
20260507233055 80 144 3.0 8.0 0.00 0.00 0.00 15 1007.8
20260507231552 80 234 3.0 7.0 0.00 0.00 0.00 15 1008.0
20260507230048 79 188 3.0 8.0 0.00 0.00 0.00 15 1008.4
20260507224548 80 221 5.0 10.0 0.00 0.00 0.00 15 1008.7
20260507223048 79 173 5.0 12.0 0.00 0.00 0.00 15 1008.9
20260507221542 78 173 3.0 10.0 0.00 0.00 0.00 17 1009.3
20260507220039 79 226 2.0 9.0 0.00 0.00 0.00 14 1009.8
20260507214535 78 137 2.0 8.0 0.00 0.00 0.00 15 1010.2
20260507213040 77 161 2.0 9.0 0.00 0.00 0.00 15 1010.6
20260507211530 76 103 3.0 10.0 0.00 0.00 0.00 15 1011.0
20260507210029 76 126 5.0 9.0 0.00 0.00 0.00 16 1011.4
20260507204523 75 295 3.0 8.0 0.00 0.00 0.00 17 1011.9
20260507203020 73 105 2.0 9.0 0.00 0.00 0.00 16 1012.2
20260507201518 74 140 5.0 9.0 0.00 0.00 0.00 16 1012.5
20260507200054 71 162 3.0 10.0 0.00 0.00 0.00 18 1012.8
20260507194547 72 67 3.0 9.0 0.00 0.00 0.00 16 1013.1
20260507193051 72 101 5.0 10.0 0.00 0.00 0.00 16 1013.5
20260507191542 72 205 1.0 9.0 0.00 0.00 0.00 16 1013.8
20260507190039 71 140 1.0 8.0 0.00 0.00 0.00 17 1014.3
20260507184511 69 280 1.0 7.0 0.00 0.00 0.00 17 1014.6
20260507183007 70 223 4.0 8.0 0.00 0.00 0.00 18 1014.9
20260507181517 67 348 2.0 6.0 0.00 0.00 0.00 19 1015.3
20260507180022 67 125 1.0 7.0 0.00 0.00 0.00 20 1015.4
20260507174528 66 176 1.0 5.0 0.00 0.00 0.00 21 1015.7
20260507173013 65 117 2.0 7.0 0.00 0.00 0.00 21 1016.1
20260507171501 63 5 2.0 5.0 0.00 0.00 0.00 22 1016.4
20260507170101 63 5 3.0 6.0 0.00 0.00 0.00 23 1016.7
20260507164558 61 24 2.0 5.0 0.00 0.00 0.00 24 1017.1
20260507163101 60 19 3.0 5.0 0.00 0.00 0.00 27 1017.3
20260507161552 59 27 1.0 5.0 0.00 0.00 0.00 28 1017.5
20260507160050 58 49 3.0 5.0 0.00 0.00 0.00 29 1017.6
20260507154545 56 57 2.0 4.0 0.00 0.00 0.00 30 1017.8
20260507153041 55 63 1.0 4.0 0.00 0.00 0.00 33 1017.9
20260507151539 54 65 0.0 3.0 0.00 0.00 0.00 35 1018.0
20260507150036 52 64 1.0 4.0 0.00 0.00 0.00 36 1018.3
20260507143009 51 82 0.0 3.0 0.00 0.00 0.00 35 1018.2
20260507141515 49 82 0.0 0.0 0.00 0.00 0.00 38 1018.3
20260507140026 47 82 0.0 0.0 0.00 0.00 0.00 44 1018.3
20260507134503 44 82 0.0 0.0 0.00 0.00 0.00 46 1018.3
20260507133045 43 82 1.0 4.0 0.00 0.00 0.00 49 1018.1
20260507131606 42 82 2.0 4.0 0.00 0.00 0.00 48 1018.1
20260507130019 38 82 1.0 3.0 0.00 0.00 0.00 53 1018.1
20260507124532 37 82 0.0 2.0 0.00 0.02 0.00 54 1017.9
20260507123055 37 82 0.0 3.0 0.00 0.02 0.00 54 1017.8
20260507121549 37 82 2.0 3.0 0.00 0.02 0.00 57 1017.4
20260507120049 38 82 1.0 4.0 0.00 0.02 0.00 53 1017.3
20260507114545 39 82 0.0 2.0 0.00 0.02 0.00 52 1017.0
20260507113044 39 82 0.0 3.0 0.00 0.02 0.00 55 1017.1
20260507111547 39 82 0.0 2.0 0.00 0.02 0.00 57 1017.1
20260507110041 39 82 0.0 1.0 0.00 0.02 0.00 58 1017.3
20260507104538 40 82 0.0 0.0 0.00 0.02 0.00 55 1017.1
20260507103040 40 82 0.0 2.0 0.00 0.02 0.00 49 1017.1
20260507101543 41 82 0.0 0.0 0.00 0.02 0.00 52 1016.9
20260507100036 41 82 0.0 2.0 0.00 0.02 0.00 49 1016.8
20260507094539 42 82 0.0 0.0 0.00 0.02 0.00 49 1016.7
20260507093034 42 82 0.0 1.0 0.00 0.02 0.00 51 1016.8
20260507091530 42 82 1.0 3.0 0.00 0.02 0.00 50 1016.8
20260507090032 42 82 0.0 1.0 0.00 0.02 0.00 53 1016.6
20260507084525 42 82 0.0 1.0 0.00 0.02 0.00 43 1016.7
20260507083019 43 82 2.0 3.0 0.00 0.02 0.00 36 1016.6
20260507081522 44 82 0.0 2.0 0.00 0.02 0.00 35 1016.5
20260507080012 45 82 0.0 1.0 0.00 0.02 0.00 36 1016.4
20260507074509 46 82 0.0 1.0 0.00 0.02 0.00 34 1016.4
20260507073009 47 82 0.0 2.0 0.00 0.02 0.00 37 1016.5
20260507071503 48 82 1.0 4.0 0.00 0.02 0.00 37 1016.6
20260507070001 48 82 0.0 0.0 0.00 0.02 0.00 31 1016.4
20260507064558 49 82 0.0 5.0 0.00 0.02 0.00 31 1016.4
20260507063055 50 78 0.0 0.0 0.00 0.02 0.00 32 1016.3
20260507061553 50 78 2.0 8.0 0.00 0.02 0.00 29 1016.4
20260507060058 52 163 1.0 4.0 0.00 0.02 0.00 28 1016.2
20260507054550 52 165 0.0 2.0 0.00 0.02 0.02 28 1016.0
20260507053053 53 165 2.0 6.0 0.00 0.02 0.02 27 1015.8
20260507051545 53 169 1.0 3.0 0.00 0.02 0.02 28 1015.7
20260507050043 54 157 2.0 6.0 0.00 0.02 0.02 30 1015.7
20260507044554 55 148 1.0 3.0 0.00 0.02 0.02 28 1015.6
20260507043036 55 130 5.0 9.0 0.00 0.02 0.02 24 1015.5
20260507041533 56 142 3.0 8.0 0.00 0.02 0.02 24 1015.3
20260507040035 57 155 3.0 8.0 0.00 0.02 0.02 24 1015.1
20260507034535 58 145 6.0 11.0 0.00 0.02 0.02 23 1014.9
20260507033028 58 132 5.0 8.0 0.00 0.02 0.02 22 1014.6